When you browse on this site, cookies collect data to enhance your experience and personalize the content and advertising you see.
Visit our Privacy Policy to learn more. By continuing to use the site, you agree to this use of cookies and data.
  • In Hungary
  • List of Countries
  • For 7 days
  • Water Temperature
  • Weather Map
  • News
  • Weather Widgets
  • user-avatar
    Login

    Hourly Weather Zabawka

    Today, 25 August, Sunday

    Time Temperature Precipitation Wind Pressure Humidity
    00:00 +16°C° 0 mm 1 mps 756 mmHg 72%
    01:00 +16°C° 0 mm 1 mps 756 mmHg 74%
    02:00 +16°C° 0 mm 1 mps 756 mmHg 75%
    03:00 +15°C° 0 mm 1 mps 756 mmHg 75%
    04:00 +15°C° 0 mm 1 mps 756 mmHg 76%
    05:00 +16°C° 0 mm 2 mps 756 mmHg 74%
    06:00 +18°C° 0 mm 2 mps 756 mmHg 71%
    07:00 +19°C° 0 mm 2 mps 756 mmHg 68%
    08:00 +21°C° 0 mm 2 mps 756 mmHg 63%
    09:00 +23°C° 0 mm 2 mps 756 mmHg 58%
    10:00 +25°C° 0 mm 2 mps 756 mmHg 54%
    11:00 +25°C° 0 mm 3 mps 756 mmHg 52%
    12:00 +26°C° 0 mm 3 mps 756 mmHg 50%
    13:00 +27°C° 0 mm 3 mps 756 mmHg 48%
    14:00 +27°C° 0 mm 3 mps 755 mmHg 49%
    15:00 +27°C° 0 mm 3 mps 755 mmHg 51%
    16:00 +26°C° 0 mm 3 mps 755 mmHg 52%
    17:00 +25°C° 0 mm 3 mps 755 mmHg 58%
    18:00 +22°C° 0 mm 3 mps 755 mmHg 65%
    19:00 +20°C° 0 mm 2 mps 755 mmHg 71%
    20:00 +19°C° 0 mm 2 mps 755 mmHg 73%
    21:00 +18°C° 0 mm 2 mps 755 mmHg 76%
    22:00 +18°C° 0 mm 2 mps 755 mmHg 79%
    23:00 +17°C° 0 mm 2 mps 755 mmHg 80%

    Tomorrow, 26 August, Monday

    Time Temperature Precipitation Wind Pressure Humidity
    00:00 +17°C° 0 mm 2 mps 755 mmHg 82%
    01:00 +16°C° 0 mm 2 mps 756 mmHg 84%
    02:00 +16°C° 0 mm 2 mps 755 mmHg 85%
    03:00 +15°C° 0 mm 2 mps 755 mmHg 86%
    04:00 +15°C° 0 mm 2 mps 755 mmHg 88%
    05:00 +16°C° 0 mm 2 mps 755 mmHg 84%
    06:00 +17°C° 0 mm 3 mps 755 mmHg 80%
    07:00 +19°C° 0 mm 3 mps 755 mmHg 77%
    08:00 +20°C° 0 mm 3 mps 755 mmHg 70%
    09:00 +22°C° 0 mm 3 mps 755 mmHg 63%
    10:00 +25°C° 0 mm 3 mps 755 mmHg 56%
    11:00 +26°C° 0 mm 4 mps 755 mmHg 53%
    12:00 +27°C° 0 mm 4 mps 754 mmHg 50%
    13:00 +27°C° 0 mm 4 mps 754 mmHg 47%
    14:00 +27°C° 0 mm 3 mps 754 mmHg 49%
    15:00 +27°C° 0 mm 3 mps 754 mmHg 52%
    16:00 +27°C° 0 mm 3 mps 753 mmHg 54%
    17:00 +25°C° 0 mm 3 mps 753 mmHg 60%
    18:00 +22°C° 0 mm 3 mps 753 mmHg 66%
    19:00 +21°C° 0 mm 2 mps 753 mmHg 72%
    20:00 +20°C° 0 mm 3 mps 753 mmHg 74%
    21:00 +19°C° 0 mm 3 mps 754 mmHg 77%
    22:00 +19°C° 0 mm 3 mps 754 mmHg 80%
    23:00 +18°C° 0 mm 3 mps 754 mmHg 82%

    Day after tomorrow, 27 August, Tuesday

    Time Temperature Precipitation Wind Pressure Humidity
    00:00 +18°C° 0 mm 3 mps 754 mmHg 84%
    01:00 +18°C° 0 mm 3 mps 754 mmHg 86%
    02:00 +17°C° 0 mm 3 mps 753 mmHg 87%
    03:00 +17°C° 0 mm 3 mps 753 mmHg 89%
    04:00 +17°C° 0 mm 3 mps 753 mmHg 90%
    05:00 +18°C° 0 mm 3 mps 753 mmHg 86%
    06:00 +19°C° 0 mm 3 mps 754 mmHg 81%
    07:00 +20°C° 0 mm 4 mps 754 mmHg 77%
    08:00 +22°C° 0 mm 4 mps 754 mmHg 71%
    09:00 +25°C° 0 mm 4 mps 754 mmHg 65%
    10:00 +27°C° 0 mm 4 mps 754 mmHg 60%
    11:00 +28°C° 0 mm 4 mps 754 mmHg 57%
    12:00 +28°C° 0 mm 4 mps 754 mmHg 54%
    13:00 +29°C° 0 mm 4 mps 754 mmHg 52%
    14:00 +29°C° 0 mm 4 mps 753 mmHg 53%
    15:00 +29°C° 0 mm 4 mps 753 mmHg 54%
    16:00 +29°C° 0 mm 3 mps 753 mmHg 56%
    17:00 +27°C° 0 mm 3 mps 753 mmHg 61%
    18:00 +25°C° 0 mm 3 mps 753 mmHg 66%
    19:00 +22°C° 0 mm 3 mps 753 mmHg 71%
    20:00 +21°C° 0 mm 3 mps 753 mmHg 72%
    21:00 +20°C° 0 mm 3 mps 753 mmHg 73%
    22:00 +20°C° 0 mm 3 mps 753 mmHg 74%
    23:00 +19°C° 0 mm 3 mps 753 mmHg 76%

    28 August, Wednesday

    Time Temperature Precipitation Wind Pressure Humidity
    00:00 +18°C° 0 mm 3 mps 753 mmHg 79%
    01:00 +18°C° 0 mm 3 mps 753 mmHg 82%
    02:00 +18°C° 0 mm 3 mps 753 mmHg 84%
    03:00 +17°C° 0 mm 3 mps 753 mmHg 86%
    04:00 +17°C° 0 mm 3 mps 753 mmHg 88%
    05:00 +18°C° 0 mm 4 mps 753 mmHg 84%
    06:00 +19°C° 0 mm 4 mps 753 mmHg 80%
    07:00 +20°C° 0 mm 4 mps 753 mmHg 76%
    08:00 +22°C° 0 mm 5 mps 753 mmHg 71%
    09:00 +23°C° 0 mm 5 mps 753 mmHg 65%
    10:00 +26°C° 0 mm 5 mps 753 mmHg 60%
    11:00 +27°C° 0 mm 5 mps 752 mmHg 57%
    12:00 +27°C° 0 mm 5 mps 752 mmHg 54%
    13:00 +28°C° 0 mm 5 mps 752 mmHg 52%
    14:00 +28°C° 0 mm 5 mps 752 mmHg 54%
    15:00 +28°C° 0 mm 4 mps 751 mmHg 55%
    16:00 +28°C° 0 mm 4 mps 751 mmHg 57%
    17:00 +26°C° 0 mm 4 mps 751 mmHg 63%
    18:00 +23°C° 0 mm 4 mps 751 mmHg 68%
    19:00 +22°C° 0 mm 4 mps 751 mmHg 73%
    20:00 +21°C° 0 mm 4 mps 751 mmHg 75%
    21:00 +21°C° 0 mm 5 mps 751 mmHg 76%
    22:00 +20°C° 0 mm 5 mps 752 mmHg 78%
    23:00 +19°C° 0 mm 5 mps 751 mmHg 79%

    29 August, Thursday

    Time Temperature Precipitation Wind Pressure Humidity
    00:00 +19°C° 0 mm 5 mps 751 mmHg 80%
    01:00 +17°C° 0 mm 5 mps 751 mmHg 81%
    02:00 +17°C° 0 mm 4 mps 751 mmHg 80%
    03:00 +17°C° 0 mm 4 mps 751 mmHg 79%
    04:00 +15°C° 0 mm 4 mps 751 mmHg 78%
    05:00 +17°C° 0 mm 4 mps 751 mmHg 77%
    06:00 +17°C° 0 mm 5 mps 751 mmHg 76%
    07:00 +19°C° 0 mm 5 mps 751 mmHg 75%
    08:00 +20°C° 0 mm 5 mps 751 mmHg 70%
    09:00 +22°C° 0 mm 6 mps 751 mmHg 65%
    10:00 +24°C° 0 mm 6 mps 751 mmHg 60%
    11:00 +26°C° 0 mm 6 mps 751 mmHg 57%
    12:00 +27°C° 0 mm 6 mps 751 mmHg 54%
    13:00 +28°C° 0 mm 6 mps 750 mmHg 51%
    14:00 +27°C° 0 mm 5 mps 750 mmHg 53%
    15:00 +27°C° 0 mm 5 mps 750 mmHg 54%
    16:00 +27°C° 0 mm 5 mps 750 mmHg 56%
    17:00 +25°C° 0 mm 5 mps 750 mmHg 61%
    18:00 +22°C° 0 mm 4 mps 750 mmHg 66%
    19:00 +21°C° 0 mm 4 mps 749 mmHg 72%
    20:00 +20°C° 0 mm 4 mps 750 mmHg 73%
    21:00 +19°C° 0 mm 4 mps 750 mmHg 74%
    22:00 +19°C° 0 mm 4 mps 750 mmHg 75%
    23:00 +18°C° 0 mm 4 mps 750 mmHg 77%

    30 August, Friday

    Time Temperature Precipitation Wind Pressure Humidity
    00:00 +18°C° 0 mm 4 mps 750 mmHg 80%
    01:00 +17°C° 0 mm 3 mps 750 mmHg 82%
    02:00 +17°C° 0 mm 3 mps 750 mmHg 83%
    03:00 +16°C° 0 mm 3 mps 750 mmHg 83%
    04:00 +16°C° 0 mm 3 mps 750 mmHg 84%
    05:00 +17°C° 0 mm 3 mps 750 mmHg 80%
    06:00 +17°C° 0 mm 3 mps 750 mmHg 77%
    07:00 +18°C° 0 mm 3 mps 751 mmHg 74%
    08:00 +19°C° 0 mm 2 mps 751 mmHg 70%
    09:00 +20°C° 0 mm 2 mps 751 mmHg 66%
    10:00 +22°C° 0 mm 1 mps 752 mmHg 63%
    11:00 +23°C° 0.1 mm 1 mps 752 mmHg 63%
    12:00 +23°C° 0.1 mm 1 mps 752 mmHg 62%
    13:00 +23°C° 0.1 mm 1 mps 752 mmHg 62%
    14:00 +23°C° 0 mm 1 mps 752 mmHg 61%
    15:00 +23°C° 0 mm 1 mps 752 mmHg 61%
    16:00 +24°C° 0 mm 1 mps 752 mmHg 60%
    17:00 +22°C° 0 mm 1 mps 752 mmHg 63%
    18:00 +20°C° 0 mm 2 mps 752 mmHg 66%
    19:00 +19°C° 0 mm 2 mps 752 mmHg 69%
    20:00 +18°C° 0 mm 2 mps 753 mmHg 71%
    21:00 +18°C° 0 mm 2 mps 753 mmHg 72%
    22:00 +17°C° 0 mm 2 mps 753 mmHg 74%
    23:00 +17°C° 0 mm 2 mps 754 mmHg 75%
    Show more